Regional Weather Roundup
Issued by NWS

Home | Current Version | Previous Version | Graphics & Text | Print | Product List | Glossary On
Versions: 1 2 3 4 5 6 7 8 9 10 11 12 13 14 15 16 17 18 19 20 21 22 23 24 25 26 27 28 29 30 31 32 33 34 35 36 37 38 39 40 41 42 43 44 45 46 47 48 49 50
000
ASUS44 KMEG 241010
RWRTN
TENNESSEE HOURLY STATE WEATHER ROUNDUP
NATIONAL WEATHER SERVICE MEMPHIS TN
400 AM CST FRI FEB 24 2017

TNZ002-004-019-021-049-052-054-088>092-241100-
WEST TENNESSEE

CITY           SKY/WX    TMP DP  RH WIND       PRES   REMARKS
MEMPHIS INTL   CLEAR     62  57  83 S12       29.67R
NWS MEMPHIS      N/A     63 N/A N/A MISG        N/A
JACKSON        CLEAR     63  57  81 S12       29.67F
UNION CITY     CLEAR     61  61 100 S13       29.62F
PARIS          CLEAR     59  54  82 S12       29.67S
HUNTINGDON     CLEAR     63  57  82 S10       29.66F
$$

TNZ008-025-027-028-033-062-065-066-241100-
NORTH MIDDLE TENNESSEE

CITY           SKY/WX    TMP DP  RH WIND       PRES   REMARKS
NASHVILLE      CLEAR     64  55  72 S12       29.73F
PORTLAND       CLEAR     61  55  82 S14G22    29.73S
CLARKSVILLE    MOCLDY    65  55  70 S13       29.70R
SMYRNA         CLEAR     62  56  80 S7        29.75F
COOKEVILLE     CLOUDY    61  52  72 S7        29.79S
GALLATIN       CLEAR     63  55  77 S10       29.76F
CROSSVILLE     CLEAR     59  49  69 S10G18    29.85R
$$

TNZ061-075-076-078-094-096-097-241100-
SOUTH MIDDLE TENNESSEE

CITY           SKY/WX    TMP DP  RH WIND       PRES   REMARKS
FAYETTEVILLE   MOCLDY    57  55  94 S8        29.80F
TULLAHOMA      CLEAR     57  54  88 SE7       29.81F
WINCHESTER     MOCLDY    59  54  82 SE8       29.82F
MCMINNVILLE    CLEAR     63  54  72 S5        29.80F
COLUMBIA       CLEAR     64  64 100 S12       29.73S
SHELBYVILLE    CLEAR     63  57  82 SE8       29.78F
$$

TNZ017-018-042-046-047-241100-
NORTHEAST TENNESSEE

CITY           SKY/WX    TMP DP  RH WIND       PRES   REMARKS
TRI CITIES     PTCLDY    47  45  93 CALM      29.86F
ELIZABETHTON   PTCLDY    52  46  82 E6        29.87S
$$

TNZ012-013-036-069-073-074-241100-
CENTRAL EAST TENNESSEE

CITY           SKY/WX    TMP DP  RH WIND       PRES   REMARKS
KNOXVILLE      CLEAR     51  49  92 NE3       29.83R
OAK RIDGE      PTCLDY    51  48  89 CALM      29.85R
GATLINBURG     CLEAR     45  45 100 CALM      29.84S
MORRISTOWN     CLEAR     52  50  93 CALM      29.84R
JACKSBORO      MOCLDY    63  50  63 CALM      29.85S
$$

TNZ083-085-099-241100-
SOUTHEAST TENNESSEE

CITY           SKY/WX    TMP DP  RH WIND       PRES   REMARKS
CHATTANOOGA    CLEAR     51  49  92 CALM      29.86R
$$

SKY/WX REPORTED AS FAIR MEANS FEW OR NO CLOUDS BELOW
12 THOUSAND FEET.




USA.gov is the U.S. government's official web portal to all federal, state and local government web resources and services.